РПИ Магадан

РегЦ ЕС ОрВД Магадан

Региональный центр дивизиона VATRUS (Магадан) в сети VATSIM - оперативный орган обслуживания виртуального воздушного движения в РПИ Магадан.

Зона ответственности Магаданского регионального центра ЕС ОрВД покрывает Магаданскую Область, Чукотский Автономный Округ и Камчатский Край. Общая площадь территории - 5,8 млн. кв.км

Пользователями воздушного пространства РегЦ ЕС ОрВД (Магадан) являются авиакомпании не только России, но и многих зарубежных стран. В настоящее время региональный центр предоставляет аэронавигационное обслуживание более чем 60 авиакомпаниям, из которых 26 — зарубежные.

В зоне ответственности РегЦ ЕС ОрВД Магадан расположены аэродромы Магадан (Сокол) | Анадырь (Угольный) | Петропавловск-Камчатский (Елизово) | Певек

Секторы РЦ

Магадан-Контроль (UHMM_CTR) - 134.600

Магадан-Контроль  - Сектор Юг (UHMM_S_CTR) - 135.600

Магадан-Контроль  - Сектор Север (UHMM_N_CTR) - 133.200

Магадан-Контроль - Сектор Север-1 (UHMM_N1_CTR) - 133.000

Магадан-Контроль - Сектор Север-2 (UHMM_N2_CTR) - 133.700

Магадан-Контроль - Сектор Камчатка-1 (UHMM_K1_CTR) - 134.500

Магадан-Контроль - Сектор Камчатка-2 (UHMM_K2_CTR) - 122.000

Магадан-Контроль - Сектор Океанический (UHMM_O_CTR) - 134.250

МДП

Магадан-Район (UHMM_L_CTR) - 123.250

Петропавловск-Район (UHPP_L_CTR) - 134.300

Анадырь-Район (UHMA_L_CTR) - 131.000

Лого Магадан
Руководство

Konstantin Gordeev

Начальник РегЦ ЕС ОрВД (Магадан)

Denis Makosov

Заместитель начальника РегЦ ЕС ОрВД (Магадан)

Nikita Zikeev

Руководитель мероприятий
Инструкторы РПИ
Ivan Aksenenko (Instructor)
Sergey Balandin (Senior Instructor)
Входит в состав
Восточная Россия

Диспетчеры РПИ

Диспетчер Рейтинг Допуски *
Ashot Hakobyan Controller UHMM_CTR
Lihan Bao Controller UHMM_CTR
Alex Kalchenko Senior Student UHMM_CTR  *
Konstantin Gordeev Controller UHMM_CTR
Maxim Osmolovskiy Instructor UHMM_CTR
Mikhail Gogolev Instructor UHMM_CTR
Sergey Balandin Senior Instructor UHMM_CTR
Artem Fedorov Student UHMM_GND!!!
Daniel Cherednichenko Student 2 UHMM_TWR, UHPP_TWR
Egor Garifulin Student 2 UHMM_TWR, UHPP_TWR
Ivan Pivovarov Student 2 UHPP_GND
Maxim Korobko Senior Student UHMM_APP, UHPP_APP
Nikita Brynkov Student 2 UHMM_TWR
Nikita Zikeev Senior Student UHMA_APP, UHMM_APP, UHPP_APP
Nikolai Sholom Student 2 UHPP_GND
Vladimir Biber Student UHPP_GND, UHPP_TWR!!!*

Аэропорты РПИ

ICAO Город Название Погода
UHMA Анадырь Угольный UHMA 240830Z 07009G14MPS 9000 BLSN BKN021 OVC038 M05/M07 Q1001 R02/////// NOSIG RMK MID 09010G14MPS END R02/07010G13MPS QFE747/0996
UHMM Магадан Магадан UHMM 240830Z 21004MPS 9999 BKN010 M01/M01 Q1004 R10/81//65 NOSIG RMK MT OBSC QFE738 R28/27003MPS
UHMP Певек Певек
UHPP Петропавловск-Камчатский Елизово UHPP 240800Z 03004MPS 360V070 CAVOK 09/M09 Q1008 R34L/CLRD60 NOSIG RMK QFE752/1003
UHMD Провидения Бухта Провидения
UHEK Купол Купол